Weather History for Christchurch, New Zealand

Change the Weather History Date:

Friday, February 14, 2014

  Actual Average Record
Temperature  
Mean Temperature 62 °F -  
Max Temperature 69 °F 70 °F 91 °F (2001)
Min Temperature 55 °F 52 °F 42 °F (2007)
Degree Days  
Heating Degree Days 3    
Growing Degree Days 12 (Base 50)    
Moisture  
Dew Point 55 °F    
Average Humidity 81    
Maximum Humidity 100    
Minimum Humidity 56    
Precipitation  
Precipitation 0.00 in - - ()
Sea Level Pressure  
Sea Level Pressure 29.58 in    
Wind  
Wind Speed 5 mph ()    
Max Wind Speed 17 mph    
Max Gust Speed -    
Visibility 6.2 miles    
Events Rain    
Averages and records for this station are not official NWS values.
T = Trace of Precipitation, MM = Missing Value Source: Averaged Metar Reports

Daily Weather History Graph

Daily Weather History Graph

Search for Another Location

Airport:

Trip Planner

Search our weather history database for the weather conditions in past years. The results will help you decide how hot, cold, wet, or windy it might be!

Date:

Astronomy

Feb. 14, 2014 Rise Set
Actual Time 6:47 AM NZDT 8:39 PM NZDT
Civil Twilight 6:17 AM NZDT 9:10 PM NZDT
Nautical Twilight 5:39 AM NZDT 9:47 PM NZDT
Astronomical Twilight 4:58 AM NZDT 10:27 PM NZDT
Moon 7:49 PM NZDT (2/14) 5:51 AM NZDT (2/14)
Length of Visible Light 14h 53m
Length of Day
13h 51m
Waxing Gibbous, 99% of the Moon is Illuminated
Feb 14
Waxing Gibbous
Feb 15
Full
Feb 23
Last Quarter
Mar 1
New
Mar 9
First Quarter

Hourly Weather History & Observations

Time (NZDT) Temp. Dew Point Humidity Pressure Visibility Wind Dir Wind Speed Gust Speed Precip Events Conditions
12:00 AM 57.2 °F 55.4 °F 94% 29.47 in 6.2 mi Calm Calm - N/A   Overcast
12:30 AM 57.2 °F 55.4 °F 94% 29.47 in 6.2 mi SSE 1.2 mph - N/A   Overcast
1:00 AM 57.2 °F 55.4 °F 94% 29.47 in 6.2 mi SSW 1.2 mph - N/A   Overcast
1:30 AM 55.4 °F 53.6 °F 94% 29.47 in 6.2 mi SW 2.3 mph - N/A   Mostly Cloudy
2:00 AM 57.2 °F 55.4 °F 94% 29.50 in 6.2 mi SW 5.8 mph - N/A   Mostly Cloudy
2:30 AM 57.2 °F 53.6 °F 88% 29.47 in 6.2 mi SSW 3.5 mph - N/A   Mostly Cloudy
3:00 AM 57.2 °F 55.4 °F 94% 29.50 in 6.2 mi SSW 11.5 mph - N/A   Mostly Cloudy
3:30 AM 57.2 °F 57.2 °F 100% 29.50 in 6.2 mi SSW 9.2 mph - N/A Rain Light Rain Showers
4:00 AM 57.2 °F 57.2 °F 100% 29.53 in 6.2 mi South 9.2 mph - N/A Rain Light Rain Showers
4:30 AM 57.2 °F 57.2 °F 100% 29.53 in 6.2 mi SSW 4.6 mph - N/A Rain Light Rain Showers
5:00 AM 57.2 °F 57.2 °F 100% 29.53 in 6.2 mi SW 3.5 mph - N/A Rain Light Rain Showers
5:30 AM 57.2 °F 57.2 °F 100% 29.53 in 6.2 mi SW 4.6 mph - N/A   Overcast
6:00 AM 57.2 °F 57.2 °F 100% 29.53 in 6.2 mi SW 3.5 mph - N/A Rain Light Rain Showers
6:30 AM 57.2 °F 57.2 °F 100% 29.53 in 6.2 mi WNW 2.3 mph - N/A   Drizzle
7:00 AM 57.2 °F 57.2 °F 100% 29.53 in 6.2 mi NW 3.5 mph - N/A Rain Light Rain Showers
7:30 AM 57.2 °F 55.4 °F 94% 29.56 in 6.2 mi WNW 4.6 mph - N/A Rain Light Rain Showers
8:30 AM 57.2 °F 57.2 °F 100% 29.56 in 6.2 mi West 2.3 mph - N/A   Mostly Cloudy
9:00 AM 59.0 °F 57.2 °F 94% 29.59 in 6.2 mi West 2.3 mph - N/A Rain Light Rain Showers
9:30 AM 59.0 °F 57.2 °F 94% 29.59 in 6.2 mi WSW 1.2 mph - N/A   Overcast
10:00 AM 60.8 °F 55.4 °F 82% 29.59 in 6.2 mi South 4.6 mph - N/A   Mostly Cloudy
10:30 AM 62.6 °F 53.6 °F 72% 29.59 in 6.2 mi SSW 4.6 mph - N/A   Overcast
11:00 AM 64.4 °F 53.6 °F 68% 29.59 in 6.2 mi SSW 3.5 mph - N/A   Overcast
11:30 AM 64.4 °F 53.6 °F 68% 29.59 in 6.2 mi South 3.5 mph - N/A   Mostly Cloudy
12:00 PM 66.2 °F 53.6 °F 64% 29.59 in 6.2 mi SSE 3.5 mph - N/A   Scattered Clouds
12:30 PM 68.0 °F 53.6 °F 60% 29.59 in 6.2 mi ESE 3.5 mph - N/A   Scattered Clouds
1:00 PM 68.0 °F 51.8 °F 56% 29.59 in 6.2 mi SSE 6.9 mph - N/A   Partly Cloudy
1:30 PM 69.8 °F 53.6 °F 56% 29.59 in 6.2 mi SSE 6.9 mph - N/A   Unknown
2:00 PM 68.0 °F 51.8 °F 56% 29.56 in 6.2 mi South 5.8 mph - N/A   Unknown
2:30 PM 69.8 °F 55.4 °F 60% 29.56 in 6.2 mi East 10.4 mph - N/A   Scattered Clouds
3:00 PM 69.8 °F 55.4 °F 60% 29.56 in 6.2 mi ENE 9.2 mph - N/A   Scattered Clouds
3:30 PM 69.8 °F 55.4 °F 60% 29.56 in 6.2 mi ENE 11.5 mph - N/A   Unknown
4:00 PM 69.8 °F 57.2 °F 64% 29.56 in 6.2 mi ENE 12.7 mph - N/A   Unknown
4:30 PM 68.0 °F 55.4 °F 64% 29.59 in 6.2 mi East 12.7 mph - N/A   Unknown
5:00 PM 68.0 °F 55.4 °F 64% 29.59 in 6.2 mi ENE 13.8 mph - N/A   Mostly Cloudy
5:30 PM 64.4 °F 55.4 °F 73% 29.59 in 6.2 mi NE 17.3 mph - N/A   Mostly Cloudy
6:00 PM 64.4 °F 55.4 °F 73% 29.59 in 6.2 mi NE 15.0 mph - N/A   Overcast
6:30 PM 64.4 °F 55.4 °F 73% 29.62 in 6.2 mi NE 12.7 mph - N/A   Mostly Cloudy
7:00 PM 64.4 °F 53.6 °F 68% 29.62 in 6.2 mi ENE 13.8 mph - N/A   Mostly Cloudy
7:30 PM 62.6 °F 53.6 °F 72% 29.62 in 6.2 mi ENE 12.7 mph - N/A   Mostly Cloudy
8:00 PM 60.8 °F 53.6 °F 77% 29.65 in 6.2 mi ENE 11.5 mph - N/A   Mostly Cloudy
8:30 PM 60.8 °F 53.6 °F 77% 29.65 in 6.2 mi ENE 10.4 mph - N/A   Mostly Cloudy
9:00 PM 59.0 °F 53.6 °F 82% 29.68 in 6.2 mi ENE 10.4 mph - N/A   Overcast
9:30 PM 59.0 °F 53.6 °F 82% 29.68 in 6.2 mi ENE 10.4 mph - N/A   Overcast
10:00 PM 59.0 °F 53.6 °F 82% 29.71 in 6.2 mi ENE 10.4 mph - N/A   Mostly Cloudy
10:30 PM 59.0 °F 53.6 °F 82% 29.71 in 6.2 mi ENE 6.9 mph - N/A   Overcast
11:00 PM 59.0 °F 53.6 °F 82% 29.74 in 6.2 mi East 9.2 mph - N/A   Overcast
11:30 PM 59.0 °F 53.6 °F 82% 29.74 in 6.2 mi ENE 6.9 mph - N/A   Mostly Cloudy